Time,TemperatureF,DewpointF,PressureIn,WindDirection,WindDirectionDegrees,WindSpeedMPH,WindSpeedGustMPH,Humidity,HourlyPrecipIn,Conditions,Clouds,dailyrainin,SoftwareType,DateUTC
2015-01-31 00:00:00,29.2,16.2,30.45,ESE,107,7.0,7.0,58,0.00,,,0.00,Wunderground v.1.15,2015-01-31 05:00:00,
2015-01-31 00:06:00,29.2,16.2,30.45,NNE,17,6.0,7.0,58,0.00,,,0.00,Wunderground v.1.15,2015-01-31 05:06:00,
2015-01-31 00:11:00,29.1,15.7,30.46,NE,35,4.0,9.0,57,0.00,,,0.00,Wunderground v.1.15,2015-01-31 05:11:00,
2015-01-31 00:16:00,29.4,15.6,30.45,ENE,70,4.0,9.0,56,0.00,,,0.00,Wunderground v.1.15,2015-01-31 05:16:00,
2015-01-31 00:21:00,29.2,15.8,30.45,ENE,59,4.0,5.0,57,0.00,,,0.00,Wunderground v.1.15,2015-01-31 05:21:00,
2015-01-31 00:27:00,29.0,15.7,30.45,NE,48,5.0,9.0,57,0.00,,,0.00,Wunderground v.1.15,2015-01-31 05:27:00,
2015-01-31 00:32:00,28.9,15.6,30.45,ENE,61,5.0,7.0,57,0.00,,,0.00,Wunderground v.1.15,2015-01-31 05:32:00,
2015-01-31 00:37:00,28.8,15.5,30.45,ENE,69,5.0,7.0,57,0.00,,,0.00,Wunderground v.1.15,2015-01-31 05:37:00,
2015-01-31 00:42:00,28.8,15.1,30.45,NNE,18,6.0,11.0,56,0.00,,,0.00,Wunderground v.1.15,2015-01-31 05:42:00,
2015-01-31 00:47:00,28.8,15.1,30.45,NE,48,6.0,11.0,56,0.00,,,0.00,Wunderground v.1.15,2015-01-31 05:47:00,
2015-01-31 00:52:00,28.9,14.7,30.45,NE,34,4.0,5.0,55,0.00,,,0.00,Wunderground v.1.15,2015-01-31 05:52:00,
2015-01-31 00:57:00,28.8,14.6,30.45,NE,41,2.0,5.0,55,0.00,,,0.00,Wunderground v.1.15,2015-01-31 05:57:00,
2015-01-31 01:02:00,28.7,14.1,30.45,NE,42,1.0,12.0,54,0.00,,,0.00,Wunderground v.1.15,2015-01-31 06:02:00,
2015-01-31 01:08:00,28.8,14.2,30.45,NE,37,3.0,12.0,54,0.00,,,0.00,Wunderground v.1.15,2015-01-31 06:08:00,
2015-01-31 01:13:00,28.8,13.8,30.45,NNE,19,4.0,12.0,53,0.00,,,0.00,Wunderground v.1.15,2015-01-31 06:13:00,
2015-01-31 01:18:00,28.7,14.1,30.45,NNE,12,4.0,12.0,54,0.00,,,0.00,Wunderground v.1.15,2015-01-31 06:18:00,
2015-01-31 01:23:00,28.7,12.8,30.45,ENE,59,3.0,12.0,51,0.00,,,0.00,Wunderground v.1.15,2015-01-31 06:23:00,
2015-01-31 01:28:00,28.8,13.8,30.45,North,355,3.0,12.0,53,0.00,,,0.00,Wunderground v.1.15,2015-01-31 06:28:00,
2015-01-31 01:33:00,28.6,13.2,30.45,NNE,17,3.0,12.0,52,0.00,,,0.00,Wunderground v.1.15,2015-01-31 06:33:00,
2015-01-31 01:38:00,28.8,13.4,30.45,NE,44,4.0,12.0,52,0.00,,,0.00,Wunderground v.1.15,2015-01-31 06:38:00,
2015-01-31 01:44:00,28.6,13.6,30.45,North,360,5.0,12.0,53,0.00,,,0.00,Wunderground v.1.15,2015-01-31 06:44:00,
2015-01-31 01:49:00,28.6,12.7,30.46,NNW,341,6.0,12.0,51,0.00,,,0.00,Wunderground v.1.15,2015-01-31 06:49:00,
2015-01-31 01:54:00,28.5,13.5,30.46,NNE,19,6.0,12.0,53,0.00,,,0.00,Wunderground v.1.15,2015-01-31 06:54:00,
2015-01-31 02:00:00,28.2,13.2,30.46,NW,326,5.0,12.0,53,0.00,,,0.00,Wunderground v.1.15,2015-01-31 07:00:00,
2015-01-31 02:05:00,28.4,12.6,30.46,North,355,5.0,12.0,51,0.00,,,0.00,Wunderground v.1.15,2015-01-31 07:05:00,
2015-01-31 02:10:00,28.3,12.9,30.47,North,355,5.0,12.0,52,0.00,,,0.00,Wunderground v.1.15,2015-01-31 07:10:00,
2015-01-31 02:15:00,28.2,12.8,30.47,North,355,5.0,12.0,52,0.00,,,0.00,Wunderground v.1.15,2015-01-31 07:15:00,
2015-01-31 02:20:00,28.1,12.7,30.48,NW,312,6.0,6.0,52,0.00,,,0.00,Wunderground v.1.15,2015-01-31 07:20:00,
2015-01-31 02:26:00,28.2,12.4,30.47,NNW,336,6.0,12.0,51,0.00,,,0.00,Wunderground v.1.15,2015-01-31 07:26:00,
2015-01-31 02:31:00,28.1,13.1,30.47,North,350,6.0,10.0,53,0.00,,,0.00,Wunderground v.1.15,2015-01-31 07:31:00,
2015-01-31 02:36:00,28.1,12.3,30.48,NNW,330,7.0,12.0,51,0.00,,,0.00,Wunderground v.1.15,2015-01-31 07:36:00,
2015-01-31 02:41:00,28.1,12.3,30.48,West,273,5.0,6.0,51,0.00,,,0.00,Wunderground v.1.15,2015-01-31 07:41:00,
2015-01-31 02:46:00,27.7,12.3,30.48,NNE,16,3.0,12.0,52,0.00,,,0.00,Wunderground v.1.15,2015-01-31 07:46:00,
2015-01-31 02:52:00,27.8,11.5,30.48,NW,325,3.0,12.0,50,0.00,,,0.00,Wunderground v.1.15,2015-01-31 07:52:00,
2015-01-31 02:57:00,27.6,11.8,30.48,WNW,301,3.0,12.0,51,0.00,,,0.00,Wunderground v.1.15,2015-01-31 07:57:00,
2015-01-31 03:02:00,27.4,12.1,30.48,NNW,334,2.0,12.0,52,0.00,,,0.00,Wunderground v.1.15,2015-01-31 08:02:00,
2015-01-31 03:07:00,27.1,12.2,30.48,NW,313,2.0,12.0,53,0.00,,,0.00,Wunderground v.1.15,2015-01-31 08:07:00,
2015-01-31 03:12:00,27.0,12.1,30.47,NW,315,3.0,12.0,53,0.00,,,0.00,Wunderground v.1.15,2015-01-31 08:12:00,
2015-01-31 03:18:00,27.0,12.1,30.47,WNW,300,4.0,12.0,53,0.00,,,0.00,Wunderground v.1.15,2015-01-31 08:18:00,
2015-01-31 03:23:00,26.9,12.0,30.48,WNW,300,4.0,12.0,53,0.00,,,0.00,Wunderground v.1.15,2015-01-31 08:23:00,
2015-01-31 03:28:00,26.8,11.9,30.47,West,274,4.0,12.0,53,0.00,,,0.00,Wunderground v.1.15,2015-01-31 08:28:00,
2015-01-31 03:33:00,26.8,11.5,30.47,West,267,4.0,12.0,52,0.00,,,0.00,Wunderground v.1.15,2015-01-31 08:33:00,
2015-01-31 03:38:00,26.8,11.5,30.47,WNW,299,4.0,12.0,52,0.00,,,0.00,Wunderground v.1.15,2015-01-31 08:38:00,
2015-01-31 03:43:00,26.7,11.4,30.47,NW,308,5.0,12.0,52,0.00,,,0.00,Wunderground v.1.15,2015-01-31 08:43:00,
2015-01-31 03:49:00,26.6,11.3,30.47,NW,305,5.0,12.0,52,0.00,,,0.00,Wunderground v.1.15,2015-01-31 08:49:00,
2015-01-31 03:54:00,26.6,10.9,30.47,NW,318,5.0,12.0,51,0.00,,,0.00,Wunderground v.1.15,2015-01-31 08:54:00,
2015-01-31 03:59:00,26.7,11.0,30.47,NW,319,6.0,12.0,51,0.00,,,0.00,Wunderground v.1.15,2015-01-31 08:59:00,
2015-01-31 04:04:00,26.6,10.9,30.47,NW,309,6.0,12.0,51,0.00,,,0.00,Wunderground v.1.15,2015-01-31 09:04:00,
2015-01-31 04:09:00,26.6,10.4,30.47,NW,309,6.0,12.0,50,0.00,,,0.00,Wunderground v.1.15,2015-01-31 09:09:00,
2015-01-31 04:14:00,26.9,9.8,30.47,NNW,334,7.0,12.0,48,0.00,,,0.00,Wunderground v.1.15,2015-01-31 09:14:00,
2015-01-31 04:19:00,26.9,9.8,30.47,WNW,292,7.0,12.0,48,0.00,,,0.00,Wunderground v.1.15,2015-01-31 09:19:00,
2015-01-31 04:24:00,26.7,10.1,30.47,NW,310,7.0,12.0,49,0.00,,,0.00,Wunderground v.1.15,2015-01-31 09:24:00,
2015-01-31 04:29:00,26.8,9.7,30.47,NNW,342,7.0,12.0,48,0.00,,,0.00,Wunderground v.1.15,2015-01-31 09:29:00,
2015-01-31 04:35:00,27.0,9.4,30.47,WNW,294,8.0,12.0,47,0.00,,,0.00,Wunderground v.1.15,2015-01-31 09:35:00,
2015-01-31 04:40:00,26.9,9.8,30.47,WNW,300,8.0,8.0,48,0.00,,,0.00,Wunderground v.1.15,2015-01-31 09:40:00,
2015-01-31 04:46:00,26.7,10.1,30.47,WNW,290,7.0,12.0,49,0.00,,,0.00,Wunderground v.1.15,2015-01-31 09:46:00,
2015-01-31 04:51:00,26.7,9.6,30.47,NW,309,7.0,12.0,48,0.00,,,0.00,Wunderground v.1.15,2015-01-31 09:51:00,
2015-01-31 04:56:00,26.6,9.5,30.47,NW,313,7.0,12.0,48,0.00,,,0.00,Wunderground v.1.15,2015-01-31 09:56:00,
2015-01-31 05:01:00,26.7,9.6,30.46,NNW,328,7.0,12.0,48,0.00,,,0.00,Wunderground v.1.15,2015-01-31 10:01:00,
2015-01-31 05:07:00,26.6,9.5,30.46,WSW,255,6.0,12.0,48,0.00,,,0.00,Wunderground v.1.15,2015-01-31 10:07:00,
2015-01-31 05:12:00,26.5,10.3,30.46,NNW,331,5.0,12.0,50,0.00,,,0.00,Wunderground v.1.15,2015-01-31 10:12:00,
2015-01-31 05:17:00,26.3,9.7,30.46,NW,325,5.0,12.0,49,0.00,,,0.00,Wunderground v.1.15,2015-01-31 10:17:00,
2015-01-31 05:22:00,26.5,9.9,30.46,NNW,340,6.0,12.0,49,0.00,,,0.00,Wunderground v.1.15,2015-01-31 10:22:00,
2015-01-31 05:27:00,26.6,9.5,30.46,WNW,302,6.0,12.0,48,0.00,,,0.00,Wunderground v.1.15,2015-01-31 10:27:00,
2015-01-31 05:33:00,26.5,9.4,30.46,West,275,5.0,12.0,48,0.00,,,0.00,Wunderground v.1.15,2015-01-31 10:33:00,
2015-01-31 05:38:00,26.5,9.0,30.46,NW,318,4.0,12.0,47,0.00,,,0.00,Wunderground v.1.15,2015-01-31 10:38:00,
2015-01-31 05:43:00,26.5,9.0,30.46,NW,309,4.0,12.0,47,0.00,,,0.00,Wunderground v.1.15,2015-01-31 10:43:00,
2015-01-31 05:48:00,26.3,9.2,30.46,North,5,2.0,12.0,48,0.00,,,0.00,Wunderground v.1.15,2015-01-31 10:48:00,
2015-01-31 05:53:00,26.2,8.7,30.46,North,5,1.0,12.0,47,0.00,,,0.00,Wunderground v.1.15,2015-01-31 10:53:00,
2015-01-31 05:59:00,25.8,8.8,30.46,South,188,1.0,12.0,48,0.00,,,0.00,Wunderground v.1.15,2015-01-31 10:59:00,
2015-01-31 06:04:00,25.6,9.1,30.46,SE,140,1.0,12.0,49,0.00,,,0.00,Wunderground v.1.15,2015-01-31 11:04:00,
2015-01-31 06:09:00,25.4,8.4,30.46,SE,140,1.0,12.0,48,0.00,,,0.00,Wunderground v.1.15,2015-01-31 11:09:00,
2015-01-31 06:14:00,25.6,7.2,30.46,East,96,1.0,12.0,45,0.00,,,0.00,Wunderground v.1.15,2015-01-31 11:14:00,
2015-01-31 06:19:00,25.8,7.4,30.47,SSW,198,1.0,12.0,45,0.00,,,0.00,Wunderground v.1.15,2015-01-31 11:19:00,
2015-01-31 06:25:00,26.2,6.7,30.47,NW,317,1.0,12.0,43,0.00,,,0.00,Wunderground v.1.15,2015-01-31 11:25:00,
2015-01-31 06:30:00,26.1,7.1,30.47,WNW,295,2.0,2.0,44,0.00,,,0.00,Wunderground v.1.15,2015-01-31 11:30:00,
2015-01-31 06:35:00,26.2,6.2,30.47,WNW,291,2.0,12.0,42,0.00,,,0.00,Wunderground v.1.15,2015-01-31 11:35:00,
2015-01-31 06:40:00,26.3,5.2,30.47,NW,319,2.0,2.0,40,0.00,,,0.00,Wunderground v.1.15,2015-01-31 11:40:00,
2015-01-31 06:45:00,26.6,4.9,30.47,North,355,3.0,12.0,39,0.00,,,0.00,Wunderground v.1.15,2015-01-31 11:45:00,
2015-01-31 06:51:00,27.0,4.7,30.47,NNW,344,5.0,12.0,38,0.00,,,0.00,Wunderground v.1.15,2015-01-31 11:51:00,
2015-01-31 06:56:00,27.0,4.7,30.47,NW,305,4.0,12.0,38,0.00,,,0.00,Wunderground v.1.15,2015-01-31 11:56:00,
2015-01-31 07:01:00,26.8,5.1,30.47,NW,305,4.0,12.0,39,0.00,,,0.00,Wunderground v.1.15,2015-01-31 12:01:00,
2015-01-31 07:06:00,26.9,5.2,30.47,NNW,328,5.0,12.0,39,0.00,,,0.00,Wunderground v.1.15,2015-01-31 12:06:00,
2015-01-31 07:11:00,26.9,4.6,30.47,NNW,329,6.0,12.0,38,0.00,,,0.00,Wunderground v.1.15,2015-01-31 12:11:00,
2015-01-31 07:17:00,26.9,5.2,30.47,NW,306,6.0,12.0,39,0.00,,,0.00,Wunderground v.1.15,2015-01-31 12:17:00,
2015-01-31 07:22:00,26.8,4.5,30.47,WNW,290,6.0,12.0,38,0.00,,,0.00,Wunderground v.1.15,2015-01-31 12:22:00,
2015-01-31 07:27:00,26.8,5.1,30.47,WNW,295,5.0,12.0,39,0.00,,,0.00,Wunderground v.1.15,2015-01-31 12:27:00,
2015-01-31 07:32:00,26.5,5.9,30.48,NW,304,6.0,12.0,41,0.00,,,0.00,Wunderground v.1.15,2015-01-31 12:32:00,
2015-01-31 07:37:00,26.4,5.8,30.47,WNW,296,7.0,12.0,41,0.00,,,0.00,Wunderground v.1.15,2015-01-31 12:37:00,
2015-01-31 07:43:00,26.4,5.3,30.48,WNW,302,6.0,12.0,40,0.00,,,0.00,Wunderground v.1.15,2015-01-31 12:43:00,
2015-01-31 07:48:00,26.5,4.3,30.48,WNW,301,6.0,12.0,38,0.00,,,0.00,Wunderground v.1.15,2015-01-31 12:48:00,
2015-01-31 07:53:00,26.7,3.9,30.48,WNW,301,5.0,12.0,37,0.00,,,0.00,Wunderground v.1.15,2015-01-31 12:53:00,
2015-01-31 07:58:00,27.0,3.5,30.48,West,268,5.0,12.0,36,0.00,,,0.00,Wunderground v.1.15,2015-01-31 12:58:00,
2015-01-31 08:03:00,27.5,2.8,30.48,NW,320,5.0,12.0,34,0.00,,,0.00,Wunderground v.1.15,2015-01-31 13:03:00,
2015-01-31 08:09:00,27.9,2.5,30.48,NW,311,5.0,12.0,33,0.00,,,0.00,Wunderground v.1.15,2015-01-31 13:09:00,
2015-01-31 08:14:00,28.3,2.8,30.48,NW,312,5.0,12.0,33,0.00,,,0.00,Wunderground v.1.15,2015-01-31 13:14:00,
2015-01-31 08:19:00,28.7,2.5,30.49,NW,307,6.0,12.0,32,0.00,,,0.00,Wunderground v.1.15,2015-01-31 13:19:00,
2015-01-31 08:25:00,29.0,2.1,30.49,NW,325,6.0,12.0,31,0.00,,,0.00,Wunderground v.1.15,2015-01-31 13:25:00,
2015-01-31 08:31:00,29.6,1.9,30.49,NW,325,6.0,12.0,30,0.00,,,0.00,Wunderground v.1.15,2015-01-31 13:31:00,
2015-01-31 08:36:00,29.9,1.4,30.49,North,5,5.0,12.0,29,0.00,,,0.00,Wunderground v.1.15,2015-01-31 13:36:00,
2015-01-31 08:41:00,30.1,1.6,30.49,NNW,339,5.0,12.0,29,0.00,,,0.00,Wunderground v.1.15,2015-01-31 13:41:00,
2015-01-31 08:46:00,30.2,1.7,30.49,NW,306,4.0,12.0,29,0.00,,,0.00,Wunderground v.1.15,2015-01-31 13:46:00,
2015-01-31 08:51:00,30.4,1.9,30.50,NW,308,5.0,12.0,29,0.00,,,0.00,Wunderground v.1.15,2015-01-31 13:51:00,
2015-01-31 08:57:00,30.6,2.8,30.50,WNW,288,5.0,12.0,30,0.00,,,0.00,Wunderground v.1.15,2015-01-31 13:57:00,
2015-01-31 09:02:00,30.8,3.0,30.50,WNW,292,5.0,12.0,30,0.00,,,0.00,Wunderground v.1.15,2015-01-31 14:02:00,
2015-01-31 09:07:00,31.1,2.5,30.50,WNW,296,5.0,12.0,29,0.00,,,0.00,Wunderground v.1.15,2015-01-31 14:07:00,
2015-01-31 09:12:00,31.2,1.0,30.51,WNW,282,5.0,12.0,27,0.00,,,0.00,Wunderground v.1.15,2015-01-31 14:12:00,
2015-01-31 09:17:00,31.5,1.3,30.51,NW,317,5.0,12.0,27,0.00,,,0.00,Wunderground v.1.15,2015-01-31 14:17:00,
2015-01-31 09:23:00,31.7,-0.2,30.51,North,355,5.0,12.0,25,0.00,,,0.00,Wunderground v.1.15,2015-01-31 14:23:00,
2015-01-31 09:28:00,32.0,0.9,30.51,North,5,5.0,12.0,26,0.00,,,0.00,Wunderground v.1.15,2015-01-31 14:28:00,
2015-01-31 09:33:00,32.6,1.4,30.51,NW,315,3.0,12.0,26,0.00,,,0.00,Wunderground v.1.15,2015-01-31 14:33:00,
2015-01-31 09:38:00,33.2,2.0,30.51,NW,321,3.0,12.0,26,0.00,,,0.00,Wunderground v.1.15,2015-01-31 14:38:00,
2015-01-31 09:43:00,33.5,1.4,30.51,WNW,290,3.0,12.0,25,0.00,,,0.00,Wunderground v.1.15,2015-01-31 14:43:00,
2015-01-31 09:49:00,33.8,0.8,30.51,WNW,284,4.0,12.0,24,0.00,,,0.00,Wunderground v.1.15,2015-01-31 14:49:00,
2015-01-31 09:54:00,34.1,1.0,30.51,WNW,286,4.0,12.0,24,0.00,,,0.00,Wunderground v.1.15,2015-01-31 14:54:00,
2015-01-31 09:59:00,34.1,0.1,30.51,WNW,291,4.0,12.0,23,0.00,,,0.00,Wunderground v.1.15,2015-01-31 14:59:00,
2015-01-31 10:05:00,34.3,0.3,30.50,SW,229,4.0,12.0,23,0.00,,,0.00,Wunderground v.1.15,2015-01-31 15:05:00,
2015-01-31 10:11:00,34.5,1.4,30.51,West,265,4.0,12.0,24,0.00,,,0.00,Wunderground v.1.15,2015-01-31 15:11:00,
2015-01-31 10:16:00,34.8,1.6,30.51,WSW,240,4.0,12.0,24,0.00,,,0.00,Wunderground v.1.15,2015-01-31 15:16:00,
2015-01-31 10:21:00,35.4,2.1,30.51,WSW,255,4.0,12.0,24,0.00,,,0.00,Wunderground v.1.15,2015-01-31 15:21:00,
2015-01-31 10:26:00,35.7,1.5,30.51,West,268,4.0,12.0,23,0.00,,,0.00,Wunderground v.1.15,2015-01-31 15:26:00,
2015-01-31 10:31:00,36.1,-0.1,30.51,West,267,4.0,12.0,21,0.00,,,0.00,Wunderground v.1.15,2015-01-31 15:31:00,
2015-01-31 10:37:00,36.6,-0.8,30.51,WNW,298,4.0,12.0,20,0.00,,,0.00,Wunderground v.1.15,2015-01-31 15:37:00,
2015-01-31 10:42:00,37.1,-0.3,30.51,WNW,301,3.0,12.0,20,0.00,,,0.00,Wunderground v.1.15,2015-01-31 15:42:00,
2015-01-31 10:47:00,37.6,-1.0,30.51,NW,304,4.0,12.0,19,0.00,,,0.00,Wunderground v.1.15,2015-01-31 15:47:00,
2015-01-31 10:52:00,37.5,0.0,30.51,WSW,241,3.0,12.0,20,0.00,,,0.00,Wunderground v.1.15,2015-01-31 15:52:00,
2015-01-31 10:57:00,37.6,0.1,30.51,West,273,3.0,12.0,20,0.00,,,0.00,Wunderground v.1.15,2015-01-31 15:57:00,
2015-01-31 11:03:00,38.1,-1.8,30.51,West,269,5.0,12.0,18,0.00,,,0.00,Wunderground v.1.15,2015-01-31 16:03:00,
2015-01-31 11:08:00,38.7,-2.5,30.51,NW,311,5.0,12.0,17,0.00,,,0.00,Wunderground v.1.15,2015-01-31 16:08:00,
2015-01-31 11:13:00,38.9,-4.9,30.51,West,265,6.0,12.0,15,0.00,,,0.00,Wunderground v.1.15,2015-01-31 16:13:00,
2015-01-31 11:18:00,39.4,-3.2,30.52,West,276,6.0,12.0,16,0.00,,,0.00,Wunderground v.1.15,2015-01-31 16:18:00,
2015-01-31 11:23:00,39.8,-2.8,30.51,West,269,6.0,12.0,16,0.00,,,0.00,Wunderground v.1.15,2015-01-31 16:23:00,
2015-01-31 11:29:00,40.2,-1.2,30.51,NW,307,5.0,12.0,17,0.00,,,0.00,Wunderground v.1.15,2015-01-31 16:29:00,
2015-01-31 11:34:00,40.3,0.1,30.51,West,261,5.0,12.0,18,0.00,,,0.00,Wunderground v.1.15,2015-01-31 16:34:00,
2015-01-31 11:39:00,40.4,-1.1,30.51,WSW,251,6.0,12.0,17,0.00,,,0.00,Wunderground v.1.15,2015-01-31 16:39:00,
2015-01-31 11:44:00,40.7,-0.8,30.51,West,263,5.0,12.0,17,0.00,,,0.00,Wunderground v.1.15,2015-01-31 16:44:00,
2015-01-31 11:49:00,41.1,-1.8,30.51,WNW,298,3.0,12.0,16,0.00,,,0.00,Wunderground v.1.15,2015-01-31 16:49:00,